Showing default

UM5-EOSAT, 60555

Orbit data source: Space-Track

UM5-EOSAT, 60555 is a Moroccan payload satellite in SSO that was launched on Fri, 16 Aug 2024 UTC via an FALCON 9 launch vehicle from the Air Force Western Test Range (AFWTR). Payload-class satellites include a variety of spacecraft equipped with specific instruments for various scientific and technological missions. These include communications satellites like Starlink; space stations such as the ISS; scientific satellites like the Hubble; Earth observation satellites from companies like Planet Labs, Umbra, and HawkEye 360; GPS; miniature CubeSats for education and research; and military/defense satellites.

Loading next visibility...
Identifier
60555, 2024-149CR
Orbit
SSO
Country
Flag of MAMA
Related business
Manufacturer
UM5R
Mission
Operational Amateur Imaging
Bus & Motor
CUBESAT 3U, Unknown motor
Mass
5 kg wet, 5 kg dry
Launch date (UTC)
2024-08-16 (2 years ago)
Launch vehicle
FALCON 9
Launch site
Air Force Western Test Range (AFWTR)
Object type
Payload
Rocket body
Debris
Shape & HBR
Box, 0.1 m
Radar Cross Section
0.080 m², Small (<0.1 m²)

Expand to show TLE details & history
Last TLE update: 19 hours ago

TLE from 19 hours ago
0 UM5-EOSAT
1 60555U 24149CR  26126.18391077  .00002911  00000-0  23114-3 0  9991
2 60555  97.6655 205.4483 0005983 242.4186 117.6431 15.01248700 93912
Epoch: 2026-05-06T04:24Z
TLE epoch observation values (Epoch: 2026-05-06T04:24:49.890Z)
Latitude
-0.00001°
Longitude
-84.80762°
Altitude
568.031 km
Speed
7.576 km/s
True Right ascension
13h 41m 47s
True Declination
0° 00' 00"
Sunlit
Object was in full shadow at epoch
Visualization orbit readout
Latitude
Unknown
Longitude
Unknown
Altitude
Unknown
Speed
Unknown
Apparent Right ascension
Unknown
Apparent Declination
Unknown
Sunlit
N/A
Visualization observer readout
Local Sidereal Time
07:41:12
Azimuth
Unknown
Elevation
Unknown
Doppler factor
Unknown
Orbital elements
Apogee altitude
564.198 km
Perigee altitude
555.896 km
Semi-major axis
6,938.184 km
Eccentricity
0.0006
Inclination
97.6655°
RAAN
205.4483°
Arg. of periapsis
242.4186°
True anomaly
117.70381°
Mean anomaly
117.6431°
Eccentric anomaly
117.67346°
Mean motion
3.75556 °/min
Orbital period
95.86 mins
BSTAR
0.00023114
Loading maneuver chart data...
Computing Atmospheric mass density...
Loading historical data...
Loading historical data...
Loading historical data...
Loading historical data...
Loading historical data...
Loading historical data...
Loading historical data...

Documentation

Showing up to 5 results
|